Location: Altavilla Irpina
(41.0000°N, 14.7833°E)
Time: 17:05:48
(UTC+00:00)

Cosmos 2058 Rocket - Pass Details

Date: 19 May 2025
Orbit: 604 x 634 km, 82.5° (Epoch: 17 June)

Event Time Altitude Azimuth Distance (km) Brightness Sun altitude
Exits shadow 18:59:26 - 153° (SSE) 2,293 5.4 -7.8°
Reaches altitude 10° 19:00:14 10° 148° (SSE) 2,011 5.1 -8.0°
Maximum altitude 19:04:02 28° 90° (E) 1,184 4.1 -8.5°
Drops below altitude 10° 19:07:51 10° 31° (NNE) 2,016 5.8 -9.1°
Sets 19:10:19 0° 20° (NNE) 2,923 6.8 -9.5°
